Torna al catalogo

DIWEI ZHINENG YINGJI 1

AttivoScienzaSSO
NORAD 57582·PAYLOAD·🇨🇳 China
Questo nome del satellite non è ancora stato confermato da fonti ufficiali.

Lanciato Aug 10, 2023 da Jiuquan Satellite Launch Center

Loading…

Prossimi Passaggi (prossime 24 ore)

TLE

AggiornatoSource: Space-Track

Epoca: Sep 14, 2026, 13:19 UTC

1 57582U 23117C   26257.55506742  .00019616  00000-0  42666-3 0  9997
2 57582  97.4007 339.9720 0004763 268.0446  92.0257 15.44346020172340

Traccia DIWEI ZHINENG YINGJI 1 in tempo reale con AllMySat

Download on the App Store